• In India
  • List of Countries
  • For 7 days
  • Water Temperature
  • Satellite Maps
  • Weather Map
  • Weather Widgets
  • user-avatar
    Login

    Hourly Weather Popivka

    Today, 10 December, Monday

    Time Temperature Precipitation Wind Pressure Humidity
    00:00 -1°C° 0.4 mm 5 mps 755 mmHg 92%
    01:00 -1°C° 0.2 mm 5 mps 755 mmHg 92%
    02:00 0°C° 0.2 mm 5 mps 754 mmHg 91%
    03:00 0°C° 0.2 mm 5 mps 754 mmHg 90%
    04:00 -1°C° 0 mm 5 mps 754 mmHg 90%
    05:00 -1°C° 0 mm 5 mps 754 mmHg 89%
    06:00 -1°C° 0 mm 5 mps 754 mmHg 89%
    07:00 -2°C° 0 mm 6 mps 753 mmHg 90%
    08:00 -2°C° 0 mm 6 mps 753 mmHg 90%
    09:00 -3°C° 0 mm 6 mps 753 mmHg 91%
    10:00 -2°C° 0 mm 6 mps 753 mmHg 91%
    11:00 -2°C° 0 mm 6 mps 753 mmHg 92%
    12:00 -2°C° 0 mm 6 mps 753 mmHg 93%
    13:00 -1°C° 0.1 mm 6 mps 752 mmHg 94%
    14:00 -1°C° 0.1 mm 6 mps 752 mmHg 95%
    15:00 -1°C° 0.1 mm 6 mps 752 mmHg 95%
    16:00 -1°C° 0.1 mm 7 mps 752 mmHg 95%
    17:00 -1°C° 0.1 mm 7 mps 752 mmHg 95%
    18:00 -1°C° 0.1 mm 7 mps 752 mmHg 94%
    19:00 -1°C° 0.5 mm 7 mps 752 mmHg 95%
    20:00 0°C° 0.5 mm 7 mps 752 mmHg 95%
    21:00 0°C° 0.5 mm 7 mps 752 mmHg 95%
    22:00 0°C° 0.3 mm 7 mps 751 mmHg 95%
    23:00 0°C° 0.3 mm 7 mps 751 mmHg 96%

    Tomorrow, 11 December, Tuesday

    Time Temperature Precipitation Wind Pressure Humidity
    00:00 0°C° 0.3 mm 7 mps 751 mmHg 96%
    01:00 +1°C° 0.2 mm 6 mps 751 mmHg 97%
    02:00 +1°C° 0.2 mm 6 mps 751 mmHg 97%
    03:00 +1°C° 0.2 mm 5 mps 752 mmHg 97%
    04:00 +1°C° 0 mm 5 mps 751 mmHg 97%
    05:00 +1°C° 0 mm 5 mps 751 mmHg 97%
    06:00 +1°C° 0 mm 4 mps 751 mmHg 97%
    07:00 +1°C° 0 mm 4 mps 751 mmHg 98%
    08:00 0°C° 0 mm 4 mps 752 mmHg 98%
    09:00 0°C° 0 mm 4 mps 752 mmHg 98%
    10:00 0°C° 0 mm 4 mps 752 mmHg 98%
    11:00 0°C° 0 mm 4 mps 752 mmHg 98%
    12:00 0°C° 0 mm 4 mps 751 mmHg 98%
    13:00 0°C° 0 mm 5 mps 751 mmHg 97%
    14:00 +1°C° 0 mm 5 mps 751 mmHg 97%
    15:00 +1°C° 0 mm 6 mps 750 mmHg 96%
    16:00 +1°C° 0.1 mm 6 mps 750 mmHg 96%
    17:00 +1°C° 0.1 mm 6 mps 750 mmHg 95%
    18:00 +1°C° 0.1 mm 5 mps 750 mmHg 95%
    19:00 +1°C° 0.1 mm 6 mps 750 mmHg 95%
    20:00 +1°C° 0.1 mm 6 mps 750 mmHg 95%
    21:00 +1°C° 0.1 mm 6 mps 750 mmHg 95%
    22:00 +1°C° 0.4 mm 6 mps 750 mmHg 95%
    23:00 +1°C° 0.4 mm 6 mps 750 mmHg 95%

    Day after tomorrow, 12 December, Wednesday

    Time Temperature Precipitation Wind Pressure Humidity
    00:00 0°C° 0.4 mm 7 mps 750 mmHg 95%
    01:00 +2°C° 0.5 mm 6 mps 750 mmHg 95%
    02:00 +2°C° 0.5 mm 6 mps 750 mmHg 95%
    03:00 +2°C° 0.5 mm 6 mps 750 mmHg 95%
    04:00 +2°C° 0.1 mm 6 mps 750 mmHg 95%
    05:00 +2°C° 0.1 mm 6 mps 750 mmHg 95%
    06:00 +2°C° 0.1 mm 5 mps 750 mmHg 95%
    07:00 +2°C° 0 mm 5 mps 750 mmHg 94%
    08:00 +2°C° 0 mm 5 mps 750 mmHg 93%
    09:00 +2°C° 0 mm 5 mps 750 mmHg 92%
    10:00 +2°C° 0 mm 5 mps 751 mmHg 88%
    11:00 +3°C° 0 mm 6 mps 751 mmHg 84%
    12:00 +3°C° 0 mm 6 mps 751 mmHg 80%
    13:00 +3°C° 0 mm 6 mps 751 mmHg 79%
    14:00 +3°C° 0 mm 6 mps 751 mmHg 77%
    15:00 +3°C° 0 mm 6 mps 751 mmHg 76%
    16:00 +2°C° 0 mm 6 mps 752 mmHg 78%
    17:00 +1°C° 0 mm 5 mps 752 mmHg 80%
    18:00 0°C° 0 mm 4 mps 752 mmHg 82%
    19:00 0°C° 0 mm 4 mps 753 mmHg 83%
    20:00 0°C° 0 mm 4 mps 753 mmHg 84%
    21:00 0°C° 0 mm 4 mps 754 mmHg 85%
    22:00 0°C° 0 mm 3 mps 754 mmHg 86%
    23:00 0°C° 0 mm 3 mps 754 mmHg 87%

    13 December, Thursday

    Time Temperature Precipitation Wind Pressure Humidity
    00:00 0°C° 0 mm 3 mps 754 mmHg 88%
    01:00 0°C° 0 mm 3 mps 754 mmHg 88%
    02:00 0°C° 0 mm 3 mps 755 mmHg 88%
    03:00 +1°C° 0 mm 2 mps 755 mmHg 89%
    04:00 +1°C° 0 mm 2 mps 755 mmHg 88%
    05:00 +1°C° 0 mm 2 mps 756 mmHg 88%
    06:00 0°C° 0 mm 3 mps 756 mmHg 87%
    07:00 0°C° 0 mm 3 mps 756 mmHg 87%
    08:00 0°C° 0 mm 3 mps 757 mmHg 86%
    09:00 +2°C° 0 mm 2 mps 757 mmHg 86%
    10:00 +1°C° 0 mm 3 mps 757 mmHg 82%
    11:00 +2°C° 0 mm 3 mps 758 mmHg 79%
    12:00 +3°C° 0 mm 3 mps 758 mmHg 75%
    13:00 +3°C° 0 mm 3 mps 758 mmHg 76%
    14:00 +3°C° 0 mm 3 mps 758 mmHg 76%
    15:00 +4°C° 0 mm 2 mps 758 mmHg 76%
    16:00 +3°C° 0 mm 2 mps 758 mmHg 80%
    17:00 +2°C° 0 mm 2 mps 758 mmHg 83%
    18:00 +1°C° 0 mm 2 mps 759 mmHg 86%
    19:00 +1°C° 0 mm 2 mps 759 mmHg 86%
    20:00 +1°C° 0 mm 2 mps 759 mmHg 87%
    21:00 +1°C° 0 mm 2 mps 759 mmHg 87%
    22:00 +1°C° 0 mm 2 mps 759 mmHg 88%
    23:00 0°C° 0 mm 3 mps 759 mmHg 88%

    14 December, Friday

    Time Temperature Precipitation Wind Pressure Humidity
    00:00 0°C° 0 mm 3 mps 759 mmHg 89%
    01:00 -1°C° 0 mm 3 mps 759 mmHg 90%
    02:00 -1°C° 0 mm 3 mps 759 mmHg 91%
    03:00 -1°C° 0 mm 3 mps 759 mmHg 92%
    04:00 -1°C° 0 mm 3 mps 759 mmHg 92%
    05:00 0°C° 0 mm 3 mps 759 mmHg 92%
    06:00 0°C° 0 mm 3 mps 759 mmHg 92%
    07:00 0°C° 0.1 mm 3 mps 760 mmHg 92%
    08:00 0°C° 0.1 mm 3 mps 760 mmHg 93%
    09:00 0°C° 0.1 mm 3 mps 760 mmHg 93%
    10:00 +1°C° 0 mm 3 mps 760 mmHg 90%
    11:00 +2°C° 0 mm 3 mps 760 mmHg 87%
    12:00 +3°C° 0 mm 3 mps 760 mmHg 84%
    13:00 +4°C° 0 mm 2 mps 760 mmHg 85%
    14:00 +3°C° 0 mm 2 mps 760 mmHg 86%
    15:00 +3°C° 0 mm 2 mps 760 mmHg 87%
    16:00 +3°C° 0 mm 2 mps 760 mmHg 89%
    17:00 +2°C° 0 mm 2 mps 761 mmHg 91%
    18:00 +2°C° 0 mm 1 mps 761 mmHg 92%
    19:00 +2°C° 0 mm 1 mps 761 mmHg 92%
    20:00 +2°C° 0 mm 1 mps 761 mmHg 92%
    21:00 +2°C° 0 mm 1 mps 761 mmHg 92%
    22:00 +2°C° 0 mm 1 mps 761 mmHg 92%
    23:00 +1°C° 0 mm 1 mps 761 mmHg 92%

    15 December, Saturday

    Time Temperature Precipitation Wind Pressure Humidity
    00:00 +1°C° 0 mm 1 mps 761 mmHg 92%
    01:00 0°C° 0 mm 0 mps 761 mmHg 91%
    02:00 0°C° 0 mm 0 mps 762 mmHg 91%
    03:00 0°C° 0 mm 0 mps 762 mmHg 91%
    04:00 0°C° 0 mm 0 mps 762 mmHg 91%
    05:00 +1°C° 0 mm 1 mps 762 mmHg 91%
    06:00 +1°C° 0 mm 1 mps 762 mmHg 92%
    07:00 +1°C° 0 mm 1 mps 762 mmHg 92%
    08:00 +1°C° 0 mm 1 mps 763 mmHg 92%
    09:00 +1°C° 0 mm 1 mps 763 mmHg 92%
    10:00 +1°C° 0 mm 2 mps 763 mmHg 89%
    11:00 +2°C° 0 mm 2 mps 763 mmHg 86%
    12:00 +3°C° 0 mm 2 mps 764 mmHg 83%
    13:00 +2°C° 0 mm 2 mps 764 mmHg 84%
    14:00 +2°C° 0 mm 2 mps 764 mmHg 85%
    15:00 +1°C° 0 mm 3 mps 764 mmHg 87%
    16:00 +1°C° 0 mm 3 mps 764 mmHg 88%
    17:00 0°C° 0 mm 3 mps 764 mmHg 90%
    18:00 -1°C° 0 mm 3 mps 765 mmHg 92%
    19:00 -1°C° 0 mm 3 mps 765 mmHg 91%
    20:00 -2°C° 0 mm 4 mps 765 mmHg 91%
    21:00 -1°C° 0 mm 4 mps 765 mmHg 90%
    22:00 -1°C° 0 mm 4 mps 765 mmHg 90%
    23:00 -1°C° 0 mm 4 mps 765 mmHg 90%
    Show more